Cando, ND

2:22 AM CDT on August 21, 2017 (GMT -0500)
Cando

Weather History for K9D7 - September, 2012

Change the Weather History Date:

Saturday, September 15, 2012

  Actual Average (KDVL) Record (KDVL)
Temperature  
Mean Temperature 62 °F -  
Max Temperature 77 °F 66 °F 90 °F (1955)
Min Temperature 46 °F 45 °F 24 °F (1964)
Degree Days  
Heating Degree Days 4    
Growing Degree Days 12 (Base 50)    
Moisture  
Dew Point 41 °F    
Average Humidity 52    
Maximum Humidity 82    
Minimum Humidity 26    
Precipitation  
Precipitation 0.00 in - - ()
Sea Level Pressure  
Sea Level Pressure 29.96 in    
Wind  
Wind Speed 10 mph (SSE)    
Max Wind Speed 15 mph    
Max Gust Speed 21 mph    
Visibility 10 miles    
Events      
Averages and records for this station are not official NWS values.
T = Trace of Precipitation, MM = Missing Value Source: NWS Daily Summary

Daily Weather History Graph

Daily Weather History Graph

Search for Another Location

Airport or City:

Trip Planner

Search our weather history database for the weather conditions in past years. The results will help you decide how hot, cold, wet, or windy it might be!

Date:

Astronomy

Sep. 15, 2012 Rise Set
Actual Time 7:14 AM CDT 7:48 PM CDT
Civil Twilight 6:42 AM CDT 8:19 PM CDT
Nautical Twilight 6:05 AM CDT 8:57 PM CDT
Astronomical Twilight 5:26 AM CDT 9:36 PM CDT
Moon 6:49 AM CDT (9/15) 7:14 PM CDT (9/15)
Length of Visible Light 13h 36m
Length of Day
12h 33m
Waning Crescent, 0% of the Moon is Illuminated
Sep 15
Waning Crescent
Sep 15
New
Sep 22
First Quarter
Sep 29
Full
Oct 8
Last Quarter

Hourly Weather History & Observations

Time (CDT) Temp. Windchill Dew Point Humidity Pressure Visibility Wind Dir Wind Speed Gust Speed Precip Events Conditions
12:15 AM 53.6 °F - 42.8 °F 67% 30.12 in 10.0 mi SSE 9.2 mph - N/A   Clear
12:35 AM 53.6 °F - 41.0 °F 62% 30.12 in 10.0 mi South 10.4 mph - N/A   Clear
12:55 AM 53.6 °F - 41.0 °F 62% 30.11 in 10.0 mi South 9.2 mph - N/A   Clear
1:15 AM 53.6 °F - 41.0 °F 62% 30.10 in 10.0 mi South 10.4 mph - N/A   Clear
1:35 AM 55.4 °F - 39.2 °F 54% 30.09 in 10.0 mi South 11.5 mph - N/A   Clear
1:55 AM 53.6 °F - 39.2 °F 58% 30.09 in 10.0 mi South 10.4 mph - N/A   Clear
2:15 AM 53.6 °F - 39.2 °F 58% 30.09 in 10.0 mi South 9.2 mph - N/A   Clear
2:35 AM 53.6 °F - 39.2 °F 58% 30.08 in 10.0 mi South 10.4 mph - N/A   Clear
2:55 AM 53.6 °F - 39.2 °F 58% 30.08 in 10.0 mi South 10.4 mph - N/A   Clear
3:15 AM 53.6 °F - 39.2 °F 58% 30.07 in 10.0 mi South 11.5 mph - N/A   Clear
3:35 AM 53.6 °F - 39.2 °F 58% 30.06 in 10.0 mi South 10.4 mph - N/A   Clear
3:55 AM 53.6 °F - 39.2 °F 58% 30.06 in 10.0 mi SSE 10.4 mph - N/A   Clear
4:15 AM 53.6 °F - 39.2 °F 58% 30.05 in 10.0 mi SSE 12.7 mph - N/A   Clear
4:35 AM 53.6 °F - 39.2 °F 58% 30.04 in 10.0 mi SSE 11.5 mph - N/A   Clear
4:55 AM 53.6 °F - 41.0 °F 62% 30.05 in 10.0 mi SSE 10.4 mph - N/A   Clear
5:15 AM 50.0 °F - 41.0 °F 71% 30.04 in 10.0 mi SSE 9.2 mph - N/A   Clear
5:35 AM 50.0 °F - 41.0 °F 71% 30.03 in 10.0 mi SSE 9.2 mph - N/A   Clear
5:55 AM 48.2 °F - 41.0 °F 76% 30.03 in 10.0 mi SSE 9.2 mph - N/A   Clear
6:15 AM 46.4 °F 42.4 °F 41.0 °F 81% 30.02 in 10.0 mi SSE 8.1 mph - N/A   Clear
6:35 AM 46.4 °F 41.9 °F 41.0 °F 81% 30.02 in 10.0 mi SSE 9.2 mph - N/A   Clear
6:55 AM 46.4 °F 41.9 °F 41.0 °F 81% 30.01 in 10.0 mi SSE 9.2 mph - N/A   Clear
7:15 AM 46.4 °F 42.4 °F 41.0 °F 81% 30.01 in 10.0 mi SSE 8.1 mph - N/A   Clear
7:35 AM 48.2 °F - 42.8 °F 82% 30.00 in 10.0 mi SSE 9.2 mph - N/A   Clear
7:55 AM 50.0 °F - 42.8 °F 76% 29.99 in 10.0 mi SE 10.4 mph - N/A   Clear
8:15 AM 50.0 °F - 44.6 °F 82% 29.98 in 10.0 mi SSE 9.2 mph - N/A   Clear
8:35 AM 51.8 °F - 44.6 °F 76% 29.97 in 10.0 mi SSE 10.4 mph - N/A   Clear
8:55 AM 55.4 °F - 44.6 °F 67% 29.97 in 10.0 mi SSE 10.4 mph - N/A   Clear
9:15 AM 57.2 °F - 44.6 °F 63% 29.96 in 10.0 mi SSE 11.5 mph - N/A   Clear
9:35 AM 57.2 °F - 44.6 °F 63% 29.96 in 10.0 mi South 12.7 mph 17.3 mph N/A   Clear
9:55 AM 59.0 °F - 42.8 °F 55% 29.95 in 10.0 mi SSE 13.8 mph - N/A   Clear
10:15 AM 62.6 °F - 44.6 °F 52% 29.95 in 10.0 mi South 11.5 mph - N/A   Clear
10:35 AM 64.4 °F - 44.6 °F 49% 29.95 in 10.0 mi South 10.4 mph - N/A   Clear
10:55 AM 64.4 °F - 42.8 °F 45% 29.95 in 10.0 mi South 11.5 mph - N/A   Clear
11:15 AM 66.2 °F - 41.0 °F 40% 29.94 in 10.0 mi South 10.4 mph - N/A   Clear
11:35 AM 68.0 °F - 41.0 °F 37% 29.93 in 10.0 mi South 10.4 mph - N/A   Clear
11:55 AM 69.8 °F - 42.8 °F 38% 29.92 in 10.0 mi SSE 10.4 mph - N/A   Clear
12:15 PM 71.6 °F - 42.8 °F 35% 29.90 in 10.0 mi SSE 11.5 mph - N/A   Clear
12:35 PM 71.6 °F - 42.8 °F 35% 29.89 in 10.0 mi SSE 12.7 mph - N/A   Clear
12:55 PM 69.8 °F - 42.8 °F 38% 29.89 in 10.0 mi SSE 10.4 mph - N/A   Clear
1:15 PM 71.6 °F - 41.0 °F 33% 29.89 in 10.0 mi SSE 13.8 mph 20.7 mph N/A   Clear
1:35 PM 71.6 °F - 41.0 °F 33% 29.88 in 10.0 mi South 15.0 mph - N/A   Clear
1:55 PM 71.6 °F - 41.0 °F 33% 29.87 in 10.0 mi SSE 11.5 mph - N/A   Clear
2:15 PM 75.2 °F - 42.8 °F 31% 29.87 in 10.0 mi South 11.5 mph - N/A   Clear
2:35 PM 77.0 °F - 42.8 °F 29% 29.86 in 10.0 mi South 13.8 mph - N/A   Clear
2:55 PM 77.0 °F - 41.0 °F 28% 29.87 in 10.0 mi SW 15.0 mph - N/A   Clear
3:15 PM 77.0 °F - 39.2 °F 26% 29.87 in 10.0 mi West 13.8 mph 18.4 mph N/A   Clear
3:35 PM 77.0 °F - 41.0 °F 28% 29.87 in 10.0 mi WSW 8.1 mph - N/A   Clear
3:55 PM 77.0 °F - 39.2 °F 26% 29.87 in 10.0 mi West 9.2 mph - N/A   Clear
4:15 PM 77.0 °F - 41.0 °F 28% 29.87 in 10.0 mi NW 10.4 mph - N/A   Clear
4:35 PM 77.0 °F - 41.0 °F 28% 29.87 in 10.0 mi NW 10.4 mph 16.1 mph N/A   Clear
4:55 PM 77.0 °F - 41.0 °F 28% 29.87 in 10.0 mi NW 10.4 mph - N/A   Clear
5:15 PM 77.0 °F - 42.8 °F 29% 29.87 in 10.0 mi NNW 5.8 mph - N/A   Clear
5:35 PM 77.0 °F - 42.8 °F 29% 29.87 in 10.0 mi North 12.7 mph 17.3 mph N/A   Clear
5:55 PM 77.0 °F - 41.0 °F 28% 29.87 in 10.0 mi North 11.5 mph - N/A   Clear
6:15 PM 75.2 °F - 42.8 °F 31% 29.88 in 10.0 mi North 11.5 mph - N/A   Clear
6:35 PM 73.4 °F - 41.0 °F 31% 29.88 in 10.0 mi North 9.2 mph - N/A   Clear
6:55 PM 71.6 °F - 41.0 °F 33% 29.89 in 10.0 mi North 10.4 mph - N/A   Clear
7:15 PM 69.8 °F - 41.0 °F 35% 29.89 in 10.0 mi North 11.5 mph - N/A   Clear
7:35 PM 66.2 °F - 41.0 °F 40% 29.89 in 10.0 mi NNW 9.2 mph - N/A   Clear
7:55 PM 62.6 °F - 42.8 °F 48% 29.90 in 10.0 mi NNW 9.2 mph - N/A   Clear
8:15 PM 64.4 °F - 41.0 °F 42% 29.91 in 10.0 mi North 11.5 mph - N/A   Clear
8:35 PM 62.6 °F - 41.0 °F 45% 29.92 in 10.0 mi North 8.1 mph - N/A   Clear
8:55 PM 59.0 °F - 41.0 °F 51% 29.93 in 10.0 mi NNW 8.1 mph - N/A   Clear
9:15 PM 57.2 °F - 41.0 °F 55% 29.94 in 10.0 mi North 5.8 mph - N/A   Clear
9:35 PM 57.2 °F - 41.0 °F 55% 29.95 in 10.0 mi North 6.9 mph - N/A   Clear
9:55 PM 55.4 °F - 41.0 °F 58% 29.95 in 10.0 mi North 6.9 mph - N/A   Clear
10:15 PM 53.6 °F - 39.2 °F 58% 29.95 in 10.0 mi North 6.9 mph - N/A   Clear
10:35 PM 53.6 °F - 41.0 °F 62% 29.96 in 10.0 mi North 5.8 mph - N/A   Clear
10:55 PM 51.8 °F - 41.0 °F 67% 29.96 in 10.0 mi North 8.1 mph - N/A   Clear
11:15 PM 50.0 °F - 41.0 °F 71% 29.97 in 10.0 mi North 8.1 mph - N/A   Clear
11:35 PM 50.0 °F - 41.0 °F 71% 29.98 in 10.0 mi NNW 6.9 mph - N/A   Clear
11:55 PM 50.0 °F - 41.0 °F 71% 29.98 in 10.0 mi North 4.6 mph - N/A   Clear